TimeCST,TemperatureF,Dew PointF,Humidity,Sea Level PressureIn,VisibilityMPH,Wind Direction,Wind SpeedMPH,Gust SpeedMPH,PrecipitationIn,Events,Conditions,WindDirDegrees,DateUTC
12:53 AM,28.9,21.0,72,30.19,10.0,NW,11.5,-,N/A,,Clear,320,2013-01-06 06:53:00
1:53 AM,27.0,19.0,72,30.21,10.0,NW,8.1,-,N/A,,Partly Cloudy,310,2013-01-06 07:53:00
2:53 AM,25.0,18.0,75,30.24,10.0,NW,8.1,-,N/A,,Scattered Clouds,310,2013-01-06 08:53:00
3:53 AM,24.1,17.1,75,30.26,10.0,NW,8.1,-,N/A,,Mostly Cloudy,310,2013-01-06 09:53:00
4:53 AM,21.9,15.1,75,30.28,10.0,NW,13.8,-,N/A,,Overcast,320,2013-01-06 10:53:00
5:53 AM,21.9,16.0,78,30.31,9.0,NW,11.5,-,N/A,,Overcast,320,2013-01-06 11:53:00
6:53 AM,21.9,16.0,78,30.33,9.0,NNW,6.9,-,N/A,,Overcast,330,2013-01-06 12:53:00
7:53 AM,21.0,16.0,81,30.35,9.0,NW,5.8,-,N/A,,Scattered Clouds,320,2013-01-06 13:53:00
8:53 AM,24.1,17.1,75,30.37,9.0,West,5.8,-,N/A,,Partly Cloudy,270,2013-01-06 14:53:00
9:53 AM,26.1,18.0,71,30.39,10.0,West,9.2,-,N/A,,Clear,280,2013-01-06 15:53:00
10:53 AM,28.9,18.0,64,30.40,10.0,WNW,8.1,-,N/A,,Clear,290,2013-01-06 16:53:00
11:53 AM,32.0,18.0,56,30.39,10.0,WNW,6.9,-,N/A,,Clear,300,2013-01-06 17:53:00
12:53 PM,34.0,18.0,52,30.36,10.0,WSW,6.9,-,N/A,,Clear,240,2013-01-06 18:53:00
1:53 PM,35.1,18.0,50,30.34,10.0,WNW,3.5,-,N/A,,Clear,290,2013-01-06 19:53:00
2:53 PM,37.0,18.0,46,30.34,10.0,SW,5.8,-,N/A,,Clear,230,2013-01-06 20:53:00
3:53 PM,37.9,18.0,45,30.33,10.0,SW,5.8,-,N/A,,Clear,230,2013-01-06 21:53:00
4:53 PM,36.0,17.1,46,30.33,10.0,SSW,4.6,-,N/A,,Clear,210,2013-01-06 22:53:00
5:53 PM,32.0,17.1,54,30.34,10.0,South,6.9,-,N/A,,Clear,190,2013-01-06 23:53:00
6:53 PM,28.0,17.1,63,30.35,10.0,South,6.9,-,N/A,,Clear,180,2013-01-07 00:53:00
7:53 PM,25.0,17.1,72,30.34,10.0,South,8.1,-,N/A,,Clear,180,2013-01-07 01:53:00
8:53 PM,26.6,17.6,69,30.28,10.0,SSE,9.2,-,N/A,,Clear,160,2013-01-07 02:53:00
9:53 PM,27.0,18.0,69,30.31,10.0,SSE,10.4,-,N/A,,Clear,160,2013-01-07 03:53:00
10:53 PM,28.0,19.0,69,30.29,10.0,South,11.5,-,N/A,,Clear,180,2013-01-07 04:53:00
11:53 PM,28.0,19.0,69,30.29,10.0,South,11.5,-,N/A,,Clear,170,2013-01-07 05:53:00